Presure
140 145 134 139 139 132 152 268 111 135 303 330 354 389 127 336 311 288 269 268 249 258 252 275 255 261 221 212 222 227 192 203 196 185 182 122 129 120 162 147 116 166 175 173 167
136 141 122 140 145 162 132 126 215 198 175 326 310 381 155 355 283 274 283 257 247 249 236 305 257 257 249 214 211 219 223 200 212 189 187 186 181 166 84 170 169 133 172 184 174
131 139 109 146 150 143 140 164 113 143 350 335 324 365 395 378 321 274 283 266 257 248 256 258 263 243 252 256 200 214 203 192 209 213 190 180 188 173 158 171 165 169 150 164 177
135 148 131 141 137 155 113 163 130 241 349 201 340 348 403 384 342 304 289 278 251 258 248 242 285 253 239 233 235 208 209 190 217 213 203 191 182 184 184 160 157 170 170 160 166
141 131 150 104 109 161 193 246 143 218 322 339 343 363 246 358 356 318 295 264 249 252 245 250 230 269 250 241 229 215 206 222 219 219 190 199 190 180 188 184 174 161 171 167 166
140 146 146 105 107 203 163 146 154 324 360 347 341 372 132 368 342 353 292 288 273 263 257 244 246 239 249 246 233 228 211 207 199 222 221 210 196 192 180 189 177 172 165 171 163
175 129 141 123 132 145 200 166 167 335 352 336 346 351 137 350 321 335 338 279 273 252 260 248 237 243 241 241 242 229 223 218 206 200 190 216 210 195 191 184 175 173 171 169 172
170 137 129 143 143 202 178 311 290 349 126 345 362 245 366 341 329 325 334 324 271 275 260 257 239 247 243 237 257 236 226 221 215 202 205 200 195 204 195 193 182 172 177 179 175
177 140 127 135 157 156 270 133 131 354 364 363 356 365 364 330 321 329 323 334 310 267 271 259 244 245 244 240 230 262 230 226 211 215 201 212 197 209 201 185 183 180 166 176 173
165 128 138 144 111 248 318 333 190 380 368 358 352 354 349 330 328 315 333 325 334 283 273 267 258 256 245 244 243 221 253 225 219 208 209 213 202 200 210 205 186 175 179 179 174
131 136 143 160 237 219 216 368 377 258 367 342 322 328 330 328 330 312 316 322 333 326 284 266 255 249 254 244 226 239 220 243 230 221 220 213 212 198 211 213 200 192 176 169 171
146 134 194 159 132 141 158 297 390 372 347 339 331 318 312 318 323 314 304 310 103 339 313 284 266 254 245 239 239 231 238 219 234 252 224 214 213 201 193 206 201 198 196 180 175
136 146 152 142 170 314 127 384 372 363 344 216 331 315 501 502 79 299 195 174 147 215 333 314 267 256 253 246 248 231 227 238 214 234 258 218 210 205 200 198 207 201 204 196 189
306 181 131 135 162 319 387 368 358 351 328 319 477 490 469 492 552 282 280 287 295 306 318 328 312 266 252 247 252 240 227 220 235 221 231 248 215 210 209 209 194 210 207 205 196
162 230 125 159 184 380 368 136 289 147 326 510 449 453 431 433 508 458 291 273 252 98 311 327 326 278 247 244 241 244 238 227 223 235 225 215 238 242 213 211 208 209 207 204 204
148 174 310 192 155 282 363 346 338 325 429 435 418 410 412 420 528 444 411 302 275 268 278 312 304 320 266 249 245 241 245 235 229 223 232 229 212 211 227 232 254 277 218 217 192
225 188 189 217 367 366 194 340 327 311 457 466 405 407 392 391 458 432 474 390 290 275 273 271 311 303 309 272 245 248 245 241 234 234 225 212 235 215 199 206 216 233 250 272 230
353 339 344 131 358 357 342 331 321 388 459 428 411 397 400 404 416 436 406 360 374 281 275 272 286 289 313 305 249 243 236 237 244 236 221 211 208 79 219 211 200 204 215 221 228
153 348 347 346 363 336 337 326 312 387 457 412 399 391 387 386 380 396 430 357 344 330 284 273 260 291 290 293 293 239 246 240 244 232 220 216 215 184 208 216 207 205 201 202 208
175 340 370 153 169 343 278 319 306 382 448 405 395 383 375 370 371 370 380 370 337 331 310 276 265 262 283 296 287 292 258 236 249 248 234 220 210 199 197 214 216 207 208 208 203
355 357 321 285 295 304 323 315 302 381 440 400 386 370 360 354 373 361 360 346 334 331 341 287 272 251 284 290 292 296 294 251 249 246 238 226 215 204 200 197 208 210 215 211 211
358 352 138 355 343 334 319 310 301 447 434 401 392 370 362 351 344 364 407 342 324 323 345 328 272 260 246 281 289 278 285 278 232 240 239 239 216 201 203 197 197 214 210 212 208
307 313 162 342 332 324 312 303 329 467 430 400 381 367 359 349 352 348 378 403 330 327 330 329 288 267 253 259 277 280 279 285 252 244 241 243 211 213 208 203 182 195 204 219 217
348 138 352 329 125 315 304 299 407 447 431 404 381 379 358 346 344 349 344 373 373 367 351 338 323 277 267 256 283 278 270 275 272 242 232 234 218 226 209 198 200 205 205 203 203
340 164 342 325 319 306 298 294 404 405 430 402 372 360 350 355 341 333 334 350 367 354 348 355 317 289 279 254 261 274 278 271 280 244 238 239 229 230 213 202 203 199 208 199 213
338 141 336 322 313 301 296 290 410 403 396 437 376 369 369 349 333 333 335 353 337 362 378 345 332 303 281 269 255 257 272 263 273 275 256 237 237 228 216 214 205 199 199 205 207
144 273 268 310 308 295 291 283 402 398 396 399 385 372 347 350 339 337 322 334 337 325 330 323 325 353 300 271 247 268 276 262 255 268 254 267 222 228 218 224 208 200 197 200 198
Wind_Speed
57 62 47 53 48 47 69 73 30 37 49 37 37 43 38 60 68 66 68 65 68 65 66 84 87 93 94 88 94 98 80 89 95 94 95 62 56 59 79 66 55 76 76 75 75
56 58 26 61 63 78 38 35 40 46 59 37 38 40 36 56 59 65 74 70 68 69 72 72 91 93 98 92 91 93 93 89 99 100 96 88 83 87 48 78 78 67 76 75 73
47 55 32 71 76 54 58 72 33 63 48 42 35 37 46 51 67 64 75 74 72 72 72 71 87 88 93 96 81 91 88 90 102 104 98 87 88 91 83 82 83 80 76 75 74
55 74 39 64 53 68 32 70 44 61 49 59 40 36 40 49 62 74 79 79 73 78 77 79 76 93 93 93 97 91 93 91 105 103 101 94 90 93 86 85 80 80 81 78 77
67 43 73 29 36 86 78 73 67 60 49 44 40 41 37 42 48 75 81 76 75 78 80 81 83 90 98 100 100 95 94 101 105 103 91 98 97 91 90 89 87 85 84 83 81
65 68 77 33 36 86 83 72 40 58 51 45 42 43 47 37 48 61 81 85 87 86 87 83 84 82 97 104 100 100 99 98 94 101 102 103 98 95 89 89 88 90 88 87 84
91 48 66 41 43 77 71 84 38 60 52 48 45 43 51 36 53 56 67 87 85 84 88 87 87 90 89 101 104 102 103 103 94 92 92 100 102 94 98 90 91 92 92 89 87
90 66 48 78 76 86 83 70 64 57 47 50 49 50 39 40 52 57 61 75 86 92 93 91 90 94 95 91 100 104 105 102 100 94 98 96 92 98 101 96 94 93 94 92 90
83 71 52 68 87 85 74 63 56 56 52 50 48 52 42 45 48 58 64 67 88 89 97 99 92 95 95 95 94 87 102 104 100 101 100 101 94 101 103 98 95 98 93 93 87
90 50 67 83 43 81 76 65 56 52 50 49 47 49 43 49 53 57 61 67 70 96 102 105 101 100 95 95 92 89 81 102 104 102 102 101 98 101 102 105 100 93 97 94 89
55 63 77 91 82 83 85 61 54 58 49 46 47 48 47 48 52 56 62 68 72 83 100 101 100 93 93 93 92 93 95 87 109 109 107 101 103 103 101 103 102 102 95 91 91
81 55 96 88 65 79 91 66 55 49 41 56 50 48 52 56 51 60 65 67 23 70 87 106 102 96 97 94 97 97 97 95 92 90 104 103 101 103 95 99 102 103 102 99 92
62 76 87 74 92 83 69 60 59 54 48 31 51 49 22 36 23 63 37 45 33 46 78 87 98 101 102 96 99 96 92 93 97 91 81 104 100 102 99 97 102 101 102 103 102
115 96 67 69 95 76 63 64 63 59 58 54 16 13 18 20 38 68 71 70 70 67 70 77 88 103 105 101 99 98 94 95 95 97 89 80 104 104 104 101 92 98 100 99 100
99 99 59 92 96 63 66 74 66 66 61 7 7 9 16 21 18 35 79 76 72 19 72 69 76 96 97 97 96 97 100 97 97 94 95 89 80 83 103 97 97 96 97 97 97
77 88 89 72 67 69 66 66 65 65 22 11 13 13 17 8 13 31 55 86 78 80 77 68 74 80 94 102 102 100 100 100 98 93 85 89 86 87 79 74 62 58 101 99 92
104 65 90 71 69 66 70 66 65 67 12 7 16 17 18 20 9 40 47 57 87 83 84 78 74 77 81 100 100 104 99 99 102 96 82 84 80 76 83 80 75 64 60 55 93
90 89 86 58 67 65 65 65 64 41 6 12 15 17 10 9 4 31 58 61 61 90 86 82 74 78 76 81 100 96 99 94 99 86 81 84 72 28 78 79 83 78 72 67 62
64 83 75 75 64 65 64 63 62 33 8 15 12 15 14 16 16 35 52 67 74 89 88 83 81 72 76 80 84 96 101 98 94 89 86 81 78 77 82 75 79 80 79 78 71
78 83 68 64 62 64 64 62 61 32 15 17 18 18 17 15 22 40 49 57 74 81 95 86 82 77 77 77 86 87 97 96 96 88 90 86 82 78 80 78 77 79 76 73 71
79 70 72 61 64 63 61 60 60 29 20 21 16 16 18 22 20 36 53 63 67 76 81 85 80 79 76 79 80 78 87 96 94 91 86 90 85 79 80 80 75 77 72 69 64
71 68 66 60 60 60 59 59 59 8 22 20 23 20 23 22 21 24 27 70 68 71 66 77 84 84 84 76 77 84 85 96 92 89 84 89 89 82 81 81 78 77 72 67 64
69 68 66 60 60 60 60 59 47 7 21 21 22 23 23 23 25 26 22 38 71 72 70 73 91 88 86 83 83 84 88 90 93 92 93 88 84 84 82 81 69 76 68 65 63
65 63 58 59 61 60 61 60 24 7 14 19 22 26 25 22 22 20 25 21 42 64 71 76 81 90 86 80 78 80 85 89 98 88 84 84 85 89 86 83 80 78 71 63 61
65 64 56 57 59 60 60 60 19 13 4 17 18 20 22 26 22 20 23 24 27 48 58 62 79 89 88 77 75 80 86 90 87 93 91 92 87 85 89 85 82 76 73 66 64
62 58 54 56 58 59 60 59 14 11 7 9 21 24 30 25 23 26 23 18 29 32 33 55 66 84 88 80 76 80 86 90 87 85 94 93 93 89 87 86 83 76 71 68 64
63 58 59 58 56 58 59 59 16 12 10 9 24 29 21 26 26 30 25 21 26 34 40 45 44 52 88 86 83 83 77 86 86 81 84 84 89 89 83 86 84 79 73 70 67
Wind_Direction
343 345 353 350 339 341 343 334 296 337 320 303 278 245 296 227 225 228 232 226 228 225 225 216 220 221 226 228 227 224 226 226 225 226 228 229 223 227 223 227 236 227 230 228 229
344 344 327 353 340 335 340 317 311 328 330 304 290 253 280 228 239 236 226 234 232 225 226 223 218 222 221 228 227 228 222 226 223 225 227 225 222 228 240 226 226 233 229 231 228
348 343 299 345 342 334 341 335 304 335 313 306 295 266 241 231 222 232 225 228 228 225 220 225 217 223 224 222 232 226 227 227 223 225 226 226 222 227 227 224 227 226 229 228 229
344 339 342 340 341 342 308 337 315 327 313 317 293 273 245 234 224 222 224 224 230 221 223 221 223 220 224 224 224 226 226 229 225 224 224 226 226 228 225 229 228 227 230 229 229
339 332 337 304 312 329 320 330 333 321 314 306 285 269 278 234 234 221 223 231 233 228 227 220 225 219 219 221 224 226 227 226 226 226 227 225 227 229 224 224 226 228 229 229 229
340 334 338 305 312 333 326 332 316 318 308 301 293 269 301 236 234 233 221 222 224 223 221 225 220 222 218 219 222 222 227 228 228 228 227 227 229 227 231 226 226 227 229 229 228
324 340 340 323 309 334 330 327 313 316 306 302 290 280 302 234 232 230 228 224 225 230 223 224 225 222 218 220 221 222 224 228 229 228 230 230 230 229 231 225 228 231 230 231 230
324 337 333 335 335 325 330 321 319 311 325 296 283 294 264 249 234 231 231 226 225 224 224 222 229 221 220 220 222 221 223 225 230 228 230 229 228 230 231 230 229 232 234 231 231
324 336 330 339 327 331 326 329 321 308 296 287 280 272 263 251 241 232 227 229 223 224 221 224 228 225 221 222 222 221 223 224 227 229 228 231 227 230 229 229 229 231 232 235 236
322 332 330 334 324 322 321 320 318 300 293 286 279 273 265 248 241 237 230 227 226 221 220 222 224 222 223 223 221 224 222 224 225 227 228 228 228 229 230 229 229 229 233 235 236
334 335 334 327 322 330 328 319 308 312 297 288 280 271 262 250 243 238 235 229 228 222 221 222 227 227 224 223 225 220 225 219 223 225 225 228 227 229 230 231 229 231 232 234 235
328 332 327 330 316 323 325 321 310 306 301 287 280 277 268 256 241 237 234 233 271 227 222 221 222 224 225 224 221 225 220 225 222 226 225 227 229 231 232 230 230 232 232 234 237
334 332 328 322 323 327 313 317 315 312 308 298 291 279 265 231 293 235 247 260 256 235 226 224 220 223 224 225 221 224 224 222 230 224 223 226 227 232 233 233 233 233 235 235 238
333 324 329 325 326 328 321 321 319 320 313 306 281 270 255 263 229 234 235 232 229 228 226 224 221 220 224 225 220 221 222 224 222 228 222 220 226 230 232 235 234 236 237 237 239
319 332 309 329 321 323 325 316 321 316 318 341 248 228 237 250 214 211 227 231 233 272 227 223 222 221 222 226 226 220 220 223 225 223 225 226 223 227 233 236 238 239 239 239 239
334 331 326 315 328 322 326 327 327 325 316 275 237 231 226 235 217 190 196 222 226 227 225 220 218 220 220 221 225 225 222 221 224 225 222 224 228 229 227 230 231 230 238 241 238
328 323 319 317 332 327 319 330 329 328 306 191 243 220 241 236 235 200 194 199 223 224 223 220 216 216 217 220 222 222 223 220 222 221 220 226 219 222 234 232 233 232 234 230 240
325 325 328 322 331 328 331 331 331 327 195 191 196 221 198 173 186 189 181 199 203 222 222 219 216 216 215 219 221 222 226 225 223 220 220 225 224 221 229 227 234 233 232 232 232
332 329 331 332 330 329 332 332 333 328 195 202 192 181 170 160 174 187 184 195 204 214 220 219 219 213 216 216 220 222 220 224 224 216 218 222 222 223 231 224 228 231 234 236 232
331 328 333 315 324 331 328 333 333 328 191 194 183 191 157 151 177 182 183 183 201 211 214 217 217 215 212 213 216 218 220 222 223 218 215 218 220 220 228 226 225 231 230 233 234
330 334 330 326 324 328 333 333 332 330 187 201 208 213 205 197 176 185 190 185 200 212 213 216 216 217 215 214 214 215 219 219 219 218 213 214 218 219 225 229 228 228 229 230 233
334 332 320 332 330 332 335 334 333 325 187 200 188 194 185 202 205 179 189 193 206 213 211 212 214 215 218 213 212 215 216 216 215 219 217 213 215 219 221 228 231 230 230 230 232
334 332 322 333 332 333 335 335 335 332 193 196 193 200 201 206 196 198 187 187 207 214 213 212 213 214 216 214 211 212 215 217 214 213 215 215 213 217 220 227 229 234 231 228 228
332 315 333 332 320 334 335 335 344 6 206 201 202 188 193 208 214 198 195 186 192 205 213 214 214 215 216 215 211 211 214 218 214 215 217 216 213 215 217 225 226 229 232 228 231
332 323 332 331 333 333 334 337 338 346 303 212 202 204 208 205 206 203 208 198 195 200 206 204 213 216 217 213 211 214 212 217 216 213 214 215 216 214 215 220 226 228 228 228 229
329 322 331 330 332 333 335 338 329 320 304 251 201 197 202 192 197 202 206 191 197 194 207 212 211 216 218 213 211 212 214 216 218 215 216 216 215 213 213 215 223 226 228 229 227
312 328 328 330 332 332 335 337 317 312 288 247 205 193 193 190 186 189 207 203 190 182 176 189 209 221 216 213 210 210 211 214 219 215 213 215 215 216 213 214 219 225 227 227 229